Vertical_Velocity
-0 -1 -1 -1 -2 -1 2 1 -3 1 2 -2 -1 1 2 2 -1 -2 2 3 -1 3 1 -1 -0 -2 -6 -0 -0 -3 -3 0 -0 1 -1 -2 -0 1 -3 -1 4 1 -1
1 -0 0 1 1 -3 -2 0 -0 4 -2 0 -3 -2 -2 -2 -1 0 -1 -1 3 1 1 3 2 1 -1 7 -4 -5 2 2 0 -2 -1 -1 2 3 0 0 2 4 1
-2 -1 1 -1 2 -2 -1 -1 0 -0 0 -1 -3 3 6 0 0 -2 -2 -3 -2 -0 -1 2 0 1 2 -1 2 -5 2 -0 2 -2 1 -2 2 -2 1 -5 3 2 2
2 -0 0 1 1 -2 -1 -1 -3 -2 1 2 2 -1 -2 0 1 2 2 -0 -2 -1 1 0 2 1 -0 3 1 5 -1 -0 0 1 1 2 -2 4 3 -1 0 3 2
-0 0 1 0 0 -0 -2 -1 1 0 -2 -1 -1 0 -1 -2 -2 -1 1 1 -1 -0 -1 2 1 -0 1 3 1 -2 -1 1 1 1 2 -1 3 -1 5 -2 -1 2 2
-0 0 1 0 -0 -2 -0 -0 -2 -1 1 -1 -1 -3 -2 0 -0 -2 -3 -2 -0 -1 0 -3 -1 1 0 -1 -2 1 -2 -1 0 2 1 2 -3 3 4 -2 -1 -0 2
-1 -1 1 1 0 1 -0 -1 -1 -1 -1 -1 -1 -1 -2 -1 1 -0 -1 -2 -2 -2 0 0 -2 -2 1 1 -0 -1 -2 -3 -0 1 0 -5 -1 5 1 2 5 -2 -3
0 1 0 -0 -0 -1 0 1 -1 -2 -2 -1 -1 0 -1 -1 -1 -0 1 -2 -1 -2 -2 -0 1 -0 -1 0 2 0 0 -2 0 -2 -2 -1 -3 0 9 -4 -1 1 -1
1 1 -0 0 0 -0 1 0 0 -1 -1 -2 -1 -1 -2 -1 -1 1 -1 1 -0 -0 -1 -1 -1 1 1 -1 -1 -0 0 0 1 -1 -0 -3 -2 -1 5 8 1 -2 1
1 1 -1 0 -1 -1 -1 1 -1 -0 -2 -2 -2 -2 -1 -0 -0 -0 1 1 1 -1 -1 -2 -1 -1 -1 0 0 -2 -1 -0 -1 -1 1 1 -1 -2 2 4 3 -1 2
-1 1 0 1 -1 -0 -1 -0 -1 -1 -1 -3 -1 -1 -1 -2 -0 -1 -1 -1 -1 0 -1 -1 -1 -1 2 -0 -2 -0 -1 1 -1 -1 -3 1 1 2 4 -1 2 4 -3
-1 -2 -0 -0 -1 -1 0 -0 -1 2 1 0 -2 -1 -0 -2 0 -1 -1 -1 0 -1 -4 -3 -0 0 -1 1 -0 -1 1 1 -1 -1 -2 2 2 1 3 0 1 4 5
-0 -1 -2 -2 -3 -1 -0 -0 -1 -1 -1 -0 -1 -2 -1 -2 -0 0 -1 0 1 -2 -1 -2 -1 -0 -1 -0 -2 -0 0 -1 2 1 -2 -0 -1 -0 1 1 -1 4 4
-2 -2 -1 -1 -1 -2 -3 -2 -1 -1 -2 -1 -2 -1 -2 -2 -1 -1 -0 -2 1 1 -5 -1 -0 -1 1 -3 3 -3 -0 -1 2 2 -0 1 1 1 -1 -0 -0 -1 7
-1 -1 -1 -0 -1 -1 -0 -1 -2 -2 -2 -2 -3 -2 -2 -2 -2 -1 -2 1 -1 -3 -1 -1 0 -1 -0 0 0 -1 -2 0 -1 -2 -1 1 -2 1 -0 0 2 -2 3
-1 -2 -2 0 0 -1 -1 -2 -1 -0 -0 -1 -3 -3 2 -1 -2 -3 -1 -2 -0 -1 -1 -0 -1 -1 -0 -2 -0 0 -2 -4 -2 -1 1 1 -0 1 -1 0 -2 -0 -2
-4 -4 -3 -2 -3 -3 -1 -1 -1 -0 -0 -1 -1 -3 2 -2 2 -1 -2 -2 -2 0 -2 1 3 -2 -2 2 -4 -0 -0 2 -5 -6 5 -1 1 -0 1 -4 1 -3 -6
-4 -5 -5 -6 -7 -8 -7 -6 -3 -1 -1 -1 -2 -0 1 -1 1 1 -1 -2 -0 -1 2 -1 -0 -1 0 -0 -3 2 -2 0 -1 -4 -1 -1 -1 -1 0 0 -2 -5 -1
-1 -1 -0 -0 0 1 0 -1 -4 -5 -5 -4 -3 -1 -2 -1 0 1 2 -1 1 -1 5 -2 1 -3 -1 1 -2 1 -0 -2 -1 -2 -2 -1 -0 0 -1 -3 0 -4 -2
-3 -4 -6 -7 -6 -5 -5 -3 -2 -1 -1 -5 -5 -4 -3 -3 -2 1 3 2 1 -1 -1 1 1 -8 6 -1 0 -4 -2 -1 -2 -0 -2 0 1 -1 -0 -3 0 -1 -4
-8 -9 -8 -7 -7 -8 -8 -9 -4 -4 -3 -4 -2 -3 -5 -4 -5 -2 1 4 -0 2 5 16 -1 3 -8 -5 1 -1 -3 -2 -2 -2 -1 -1 -0 1 -0 -0 -2 -3 -0
-5 -5 -6 -6 -7 -8 -9 -6 -5 -8 -6 -6 -6 -3 -5 -5 -5 -5 -5 1 1 3 2 7 -4 -5 8 6 -3 -2 -5 -3 -1 -0 -3 -0 0 1 -1 -1 1 -1 -1
-4 -5 -6 -6 -3 -4 -5 -3 -3 -4 -5 -7 -8 -2 -2 -2 -6 -6 -5 -4 -2 -1 3 1 13 6 -8 -0 8 -5 -7 -7 2 1 1 -1 1 -0 -0 -2 -0 1 1
-4 -4 -4 -5 -5 -6 -7 -5 -6 -6 -9 -5 -6 -8 -5 -3 -2 -4 -4 -6 -4 -3 3 0 2 -4 10 6 6 5 -2 -3 -6 -8 2 -1 -1 -0 1 -0 -14 3 2
-3 -3 -4 -4 -4 -4 -7 -6 -5 -7 -7 -5 -9 -4 -4 -4 -4 -3 -4 -3 -5 -5 -2 -0 9 3 17 -1 -2 -3 0 3 -7 -4 -1 -0 1 -1 -1 1 -2 -9 5
-3 -2 -4 -4 -4 -7 -6 -3 -7 -7 -5 -6 -4 -5 -4 -1 -2 1 -1 -3 -4 -5 -1 -1 -3 11 -2 20 -0 -2 2 -1 -6 -5 -3 3 3 -1 -0 1 -7 2 -7
Height
3167 3169 3169 3170 3171 3169 3169 3170 3170 3172 3174 3175 3175 3174 3174 3174 3174 3174 3173 3174 3174 3174 3175 3177 3178 3178 3179 3180 3179 3179 3180 3181 3182 3183 3182 3182 3183 3183 3184 3184 3185 3184 3185
3166 3168 3170 3171 3172 3171 3172 3172 3173 3172 3172 3173 3174 3174 3174 3174 3174 3174 3175 3174 3174 3174 3175 3176 3176 3178 3179 3178 3180 3180 3181 3181 3183 3184 3183 3183 3184 3184 3185 3186 3186 3187 3187
3166 3167 3169 3170 3172 3172 3172 3173 3174 3174 3174 3173 3172 3172 3173 3173 3174 3174 3174 3175 3174 3174 3174 3175 3176 3177 3178 3179 3179 3181 3181 3181 3182 3183 3184 3183 3184 3185 3186 3186 3187 3187 3188
3166 3166 3168 3170 3171 3172 3173 3173 3174 3174 3174 3174 3174 3173 3172 3172 3173 3173 3173 3173 3174 3174 3174 3175 3175 3176 3177 3178 3179 3180 3181 3181 3181 3182 3182 3182 3184 3185 3186 3186 3187 3187 3188
3164 3166 3167 3168 3170 3171 3171 3172 3172 3173 3174 3174 3174 3174 3174 3173 3172 3172 3172 3172 3173 3173 3173 3174 3175 3175 3176 3177 3178 3179 3180 3180 3181 3181 3182 3181 3183 3184 3185 3186 3187 3187 3189
3164 3165 3166 3167 3168 3169 3170 3172 3172 3172 3172 3173 3173 3174 3174 3174 3174 3173 3173 3172 3172 3173 3173 3173 3173 3174 3174 3175 3176 3178 3178 3179 3180 3181 3181 3182 3182 3184 3184 3185 3186 3187 3189
3163 3164 3165 3165 3166 3167 3168 3170 3171 3171 3171 3171 3172 3172 3173 3173 3173 3173 3172 3172 3172 3172 3172 3172 3172 3173 3173 3174 3174 3175 3176 3177 3179 3179 3180 3180 3180 3182 3183 3184 3185 3187 3188
3162 3163 3163 3163 3164 3164 3165 3166 3168 3169 3170 3170 3170 3171 3171 3171 3171 3171 3171 3171 3171 3171 3171 3171 3171 3171 3171 3172 3173 3173 3174 3175 3176 3177 3178 3179 3179 3180 3181 3183 3184 3186 3187
3159 3160 3160 3161 3161 3161 3162 3163 3164 3165 3166 3167 3167 3168 3168 3169 3169 3169 3169 3168 3169 3169 3169 3169 3169 3170 3170 3170 3171 3171 3172 3173 3174 3175 3175 3176 3177 3179 3180 3180 3182 3184 3184
3155 3156 3157 3158 3158 3158 3159 3160 3160 3161 3161 3162 3163 3164 3165 3166 3165 3166 3166 3166 3166 3166 3167 3167 3167 3167 3168 3168 3168 3169 3169 3171 3172 3173 3172 3174 3176 3177 3177 3178 3180 3181 3182
3151 3152 3152 3153 3154 3155 3155 3156 3156 3156 3157 3158 3158 3160 3161 3161 3162 3162 3162 3162 3163 3163 3164 3164 3164 3164 3165 3165 3165 3166 3167 3167 3169 3170 3170 3172 3173 3174 3175 3176 3178 3179 3180
3147 3147 3148 3148 3149 3150 3150 3150 3151 3152 3152 3152 3153 3154 3155 3156 3157 3157 3159 3159 3159 3159 3160 3160 3161 3161 3161 3161 3162 3162 3164 3164 3165 3166 3166 3169 3170 3171 3172 3173 3174 3175 3177
3143 3142 3142 3143 3143 3144 3145 3145 3145 3145 3146 3146 3147 3148 3149 3150 3151 3152 3153 3154 3155 3155 3156 3156 3157 3157 3157 3157 3158 3159 3159 3160 3162 3162 3163 3165 3166 3168 3169 3170 3171 3172 3173
3135 3135 3135 3136 3137 3137 3138 3138 3139 3139 3139 3139 3139 3140 3142 3143 3145 3145 3147 3148 3149 3150 3149 3150 3151 3152 3153 3152 3153 3154 3155 3156 3157 3158 3159 3161 3162 3163 3165 3166 3168 3168 3169
3129 3128 3128 3128 3128 3128 3128 3129 3130 3131 3131 3131 3131 3131 3133 3135 3136 3137 3139 3141 3141 3142 3143 3144 3145 3146 3147 3148 3148 3149 3150 3152 3153 3153 3155 3158 3157 3159 3161 3162 3164 3164 3165
3122 3122 3121 3120 3119 3119 3119 3119 3119 3119 3120 3121 3121 3121 3123 3124 3125 3127 3129 3131 3133 3134 3135 3136 3138 3139 3141 3142 3142 3143 3144 3145 3147 3149 3151 3153 3153 3154 3157 3157 3158 3159 3159
3117 3116 3116 3115 3113 3112 3111 3109 3108 3108 3108 3108 3110 3110 3111 3112 3114 3116 3118 3122 3123 3125 3126 3128 3131 3131 3133 3134 3135 3137 3137 3139 3140 3142 3145 3147 3147 3148 3151 3151 3153 3153 3154
3110 3108 3107 3105 3104 3104 3104 3103 3101 3098 3097 3097 3098 3098 3099 3099 3101 3104 3107 3110 3113 3115 3116 3118 3121 3123 3124 3125 3126 3129 3130 3132 3133 3135 3137 3139 3141 3143 3145 3147 3147 3149 3150
3102 3101 3100 3098 3097 3096 3093 3092 3090 3089 3089 3088 3086 3086 3087 3087 3088 3090 3094 3098 3100 3104 3106 3108 3110 3112 3113 3115 3118 3119 3121 3123 3126 3127 3130 3132 3133 3136 3138 3141 3141 3143 3144
3096 3095 3093 3092 3090 3089 3087 3085 3084 3081 3079 3077 3076 3075 3075 3075 3075 3077 3079 3083 3087 3092 3095 3098 3099 3102 3102 3106 3107 3109 3111 3113 3117 3119 3122 3125 3125 3128 3131 3134 3135 3138 3140
3091 3089 3087 3085 3083 3081 3079 3078 3078 3075 3073 3070 3068 3066 3065 3064 3063 3063 3065 3068 3072 3077 3082 3085 3089 3091 3091 3095 3097 3098 3101 3103 3106 3110 3114 3117 3118 3120 3123 3127 3129 3132 3135
3084 3082 3080 3078 3075 3073 3071 3068 3064 3063 3063 3061 3059 3057 3055 3054 3053 3051 3051 3053 3057 3061 3068 3072 3077 3080 3079 3085 3087 3089 3090 3093 3096 3102 3106 3109 3111 3112 3116 3120 3123 3125 3129
3080 3077 3074 3070 3068 3064 3061 3059 3057 3054 3052 3052 3051 3049 3047 3045 3043 3041 3040 3040 3042 3045 3052 3058 3062 3065 3068 3072 3076 3080 3079 3081 3089 3092 3096 3100 3103 3105 3108 3112 3115 3119 3121
3072 3069 3066 3062 3059 3055 3052 3049 3046 3044 3043 3041 3040 3040 3038 3035 3033 3031 3030 3029 3029 3030 3035 3042 3047 3052 3051 3057 3063 3069 3070 3073 3077 3082 3087 3091 3094 3097 3099 3104 3107 3111 3115
3065 3062 3058 3054 3050 3047 3044 3040 3037 3035 3032 3031 3030 3030 3029 3027 3023 3021 3019 3019 3019 3018 3020 3024 3028 3035 3039 3042 3048 3056 3059 3062 3065 3071 3077 3081 3084 3088 3091 3096 3100 3103 3107
3058 3055 3051 3047 3044 3041 3037 3034 3030 3026 3023 3022 3020 3019 3018 3017 3015 3011 3008 3007 3007 3007 3006 3009 3013 3016 3025 3027 3036 3042 3045 3052 3054 3061 3067 3072 3075 3079 3083 3087 3091 3095 3098